{"data":{"norad_id":66273,"epoch":"2026-09-20T13:18:28.869120Z","epoch_age_seconds":91977,"freshness":"FRESH","line1":"1 66273U 25247J   26263.55450080  .00010454  00000+0  32004-3 0  9995","line2":"2 66273  53.1639   1.6875 0001742  90.3904 269.7299 15.34407400 50983","mean_motion":15.344074,"eccentricity":0.0001742,"inclination_deg":53.1639,"raan_deg":1.6875,"arg_perigee_deg":90.3904,"mean_anomaly_deg":269.7299,"bstar":0.00032004,"rev_number":5098,"period_min":93.84730548093,"perigee_km":461.48957539758,"apogee_km":463.87291647446,"semimajor_km":6840.818245936,"source":"CELESTRAK","updated_at":"2026-09-21T09:00:35.868245Z"}}